Regional Weather Roundup
Issued by NWS

Home | Current Version | Previous Version | Text Only | Print | Product List | Glossary On
Versions: 1 2 3 4 5 6 7 8 9 10 11 12 13 14 15 16 17 18 19 20 21 22 23 24 25 26 27 28 29 30 31 32 33 34 35 36 37 38 39 40 41 42 43 44 45 46 47 48 49 50
000
ASUS43 KDTX 250901
RWRMI
MICHIGAN HOURLY REGIONAL WEATHER ROUNDUP
NATIONAL WEATHER SERVICE DETROIT/PONTIAC MI
400 AM EST SUN JAN 25 2015

NOTE: "FAIR" INDICATES FEW OR NO CLOUDS BELOW 12,000 FEET WITH NO
SIGNIFICANT WEATHER AND/OR OBSTRUCTION TO VISIBILITY.

MIZ047>049-052>055-059>063-066>070-074>076-081>083-251000-
SOUTHEAST LOWER MICHIGAN

CITY           SKY/WX    TMP DP  RH WIND       PRES   REMARKS
ADRIAN         CLOUDY    33  31  92 CALM      29.71R FOG
ALMA           CLOUDY    28  22  79 N9        29.76R WCI  19
ANN ARBOR      CLOUDY    34  32  92 CALM      29.70S FOG
BAD AXE        CLOUDY    22  15  75 N10G16    29.78R WCI  11
CARO           CLOUDY    24  18  75 N6        29.77S WCI  17
DETROIT CITY   CLOUDY    34  27  75 NE8       29.73R WCI  27
DETROIT        CLOUDY    34  32  92 CALM      29.72S FOG
FLINT          CLOUDY    30  22  72 NE13      29.74S WCI  20
GROSSE ILE     CLOUDY    34  32  93 CALM      29.70S FOG
HILLSDALE      CLOUDY    35  34  99 CALM      29.69R FOG
HOWELL         CLOUDY    31  28  88 NE7       29.71R WCI  24

CITY           SKY/WX    TMP DP  RH WIND       PRES   REMARKS
JACKSON        CLOUDY    33  32  96 CALM      29.70R FOG
LAMBERTVILLE   CLOUDY    36  32  87 CALM      29.72R
LANSING        CLOUDY    31  28  89 N8        29.72S FOG     WCI  23
LAPEER         CLOUDY    26  20  77 NE7       29.75R WCI  19
MASON          CLOUDY    32  30  93 NE8       29.71R WCI  25
MONROE         CLOUDY    34  32  93 CALM      29.70S FOG
MT. CLEMENS    MIX PCPN  29  26  86 N9        29.73R WCI  21
PONTIAC        CLOUDY    30  25  81 N10         N/A  WCI  21
PORT HOPE        N/A     23  15  71 N16G24    29.78R WCI  10
PORT HURON     CLOUDY    27  19  74 N8        29.76R WCI  18
TRI CITIES     CLOUDY    25  16  68 NE16      29.79R WCI  12
TROY           CLOUDY    33  28  82 NE9       29.75R WCI  26
SAGINAW HB     CLOUDY    25  18  74 NE13      29.78R WCI  13
$$
MIZ043>046-050>051-056>058-064>065-071>073-077>080-251000-
SOUTHWEST LOWER MICHIGAN

CITY           SKY/WX    TMP DP  RH WIND       PRES   REMARKS
BATTLE CREEK   CLOUDY    37  32  82 CALM      29.71R
BENTON HARBOR  CLOUDY    34  33  96 CALM      29.69F FOG
BIG RAPIDS     CLOUDY    24  18  80 N13       29.75R WCI  12
COLDWATER      CLOUDY    34  32  94 CALM      29.70R FOG
FREMONT        CLOUDY    29  24  81 NE12      29.74R WCI  19
HOLLAND        CLOUDY    35  31  85 NE9       29.72R WCI  28
GRAND RAPIDS   CLOUDY    31  25  78 NE12      29.73R WCI  22
IONIA          CLOUDY    32  27  80 NE8       29.72R WCI  25
KALAMAZOO      CLOUDY    35  31  85 CALM      29.70R
LUDINGTON      CLOUDY    24  15  68 NE12G17   29.80R WCI  13
MARSHALL       CLOUDY    33  31  93 CALM      29.70R
MOUNT PLEASANT CLOUDY    25  17  71 N8        29.77R WCI  16
MUSKEGON       CLOUDY    32  27  81 NE8       29.74R WCI  25
SOUTH HAVEN    CLOUDY    34  32  93 CALM      29.70S FOG
$$
MIZ016>042-251000-
NORTHERN LOWER MICHIGAN

CITY           SKY/WX    TMP DP  RH WIND       PRES   REMARKS
ALPENA         CLOUDY    13   6  74 NW7       29.84R WCI   3
BEAVER ISLAND  CLEAR      9   4  78 CALM      29.90R
BELLAIRE       CLEAR     13   7  75 N3        29.88R
CADILLAC       PTCLDY    14  10  83 N7        29.77R WCI   4
CHARLEVOIX     CLEAR     11   4  71 N12       29.91R WCI  -3
FRANKFORT      CLOUDY    21  15  76 NE7       29.84R WCI  12
GAYLORD        CLEAR      8   5  87 N5        29.79R WCI   0
GRAYLING       CLEAR      8   4  82 N7        29.81R WCI  -3
HARBOR SPRINGS CLEAR      8   1  72 CALM      29.88R
HOUGHTON LAKE  CLEAR     14   8  77 N8        29.79R WCI   3
MANISTEE       PTCLDY    21  10  63 NE8       29.82R WCI  12
OSCODA         CLEAR     16  10  76 N8        29.82R WCI   5
PELLSTON       CLEAR      5  -1  76 N12       29.89R WCI -11
ROGERS CITY    MOCLDY    13   8  79 N10G16    29.87R WCI   0
TRAVERSE CITY  CLOUDY    19  13  77 NE10      29.84R WCI   7
$$
MIZ007>008-015-251000-
EASTERN UPPER MICHIGAN

CITY           SKY/WX    TMP DP  RH WIND       PRES   REMARKS
KINROSS        MOCLDY    -2  -6  84 NW7       29.90R WCI -16
MACKINAC ISLAN PTCLDY     6   0  74 N9G17     29.89R WCI  -7
NEWBERRY       PTCLDY     3   1  92 VRB5      29.90R WCI  -6
S. S. MARIE    MOCLDY    -2  -8  76 CALM      29.91R
MUNISING         N/A     18   9  68 N16       29.92R WCI   3
$$
MIZ004>006-011>014-085-251000-
CENTRAL UPPER MICHIGAN

CITY           SKY/WX    TMP DP  RH WIND       PRES   REMARKS
MANISTIQUE     MOCLDY     9   4  82 N5        29.91R WCI   0
ESCANABA       CLOUDY    18  10  73 NE12      29.89R WCI   5
MENOMINEE      CLOUDY    21  10  63 NE12      29.87R WCI   9
SAWYER-GWINN   FLURRIES  16   9  75 N13       29.87R WCI   2
$$
MIZ001>003-009>011-084-251000-
WESTERN UPPER MICHIGAN

CITY           SKY/WX    TMP DP  RH WIND       PRES   REMARKS
IRON MOUNTAIN  LGT SNOW  16  10  77 N3        29.85R
HOUGHTON       FLURRIES  14   6  70 NE7       29.92R WCI   4
COPPER HARBOR    N/A     16   7  67 E8        29.97R WCI   5
IRONWOOD       CLOUDY    12   7  79 E5        29.86R WCI   4
$$

ABBREVIATIONS USED IN REMARKS
   TC - TEMPERATURE IN CELSIUS
  WCI - WIND CHILL INDEX
   HX - HEAT INDEX
  VSB - VISIBILITY




USA.gov is the U.S. government's official web portal to all federal, state and local government web resources and services.